This is the latest recevied weather packets stored in our database for station/object K1WJY. If no packets are shown the sender has not sent any weather packets the latest 10 day(s).
| Time | Temp. | Humidity | Pressure | Rain* | Wind** | Luminosity | Snow |
|---|---|---|---|---|---|---|---|
| 1787503119 | 20° C | 99% | 1014.6 hPa | 0 mm | - | 269 W/m² | - |
| 1787502815 | 19.44° C | 99% | 1014.5 hPa | 0 mm | - | 278 W/m² | - |
| 1787502515 | 20° C | 99% | 1014.5 hPa | 0 mm | - | 203 W/m² | - |
| 1787502214 | 19.44° C | 99% | 1014.6 hPa | 0 mm | - | 241 W/m² | - |
| 1787501910 | 19.44° C | 99% | 1014.6 hPa | 0 mm | - | 177 W/m² | - |
| 1787501606 | 19.44° C | 99% | 1014.6 hPa | 0 mm | - | 124 W/m² | - |
| 1787501302 | 18.89° C | 99% | 1014.8 hPa | 0 mm | - | 122 W/m² | - |
| 1787500999 | 18.89° C | 99% | 1015 hPa | 0 mm | - | 95 W/m² | - |
| 1787500694 | 18.89° C | 99% | 1014.7 hPa | 0 mm | - | 87 W/m² | - |
| 1787500390 | 18.89° C | 99% | 1014.9 hPa | 0 mm | - | 100 W/m² | - |
| 1787500089 | 18.89° C | 99% | 1015 hPa | 0 mm | - | 101 W/m² | - |
| 1787499784 | 18.89° C | 99% | 1015.1 hPa | 0 mm | - | 101 W/m² | - |
| 1787499483 | 18.89° C | 99% | 1015.2 hPa | 0 mm | - | 113 W/m² | - |
| 1787499180 | 18.89° C | 99% | 1015.1 hPa | 0 mm | - | 114 W/m² | - |
| 1787498876 | 18.89° C | 99% | 1014.8 hPa | 0 mm | - | 121 W/m² | - |
| 1787498574 | 18.89° C | 99% | 1014.9 hPa | 0 mm | - | 136 W/m² | - |
| 1787498269 | 18.89° C | 99% | 1014.7 hPa | 0 mm | - | 133 W/m² | - |
| 1787497965 | 18.89° C | 99% | 1014.8 hPa | 0 mm | - | 144 W/m² | - |
| 1787497660 | 18.89° C | 99% | 1014.8 hPa | 0 mm | - | 117 W/m² | - |
| 1787497356 | 18.89° C | 99% | 1014.9 hPa | 0 mm | - | 146 W/m² | - |
| 1787497055 | 18.89° C | 99% | 1014.9 hPa | 0 mm | - | 134 W/m² | - |
| 1787496750 | 18.89° C | 99% | 1014.9 hPa | 0 mm | - | 131 W/m² | - |
| 1787496445 | 18.89° C | 99% | 1015.1 hPa | 0 mm | - | 142 W/m² | - |
| 1787496140 | 18.89° C | 99% | 1015.1 hPa | 0 mm | - | 138 W/m² | - |
| 1787495840 | 18.89° C | 99% | 1015.1 hPa | 0 mm | - | 134 W/m² | - |
* Rain latest hour (hover to see other rain measurements)
** Current wind speed in m/s (hover to see current wind gust speed)